Home > Weather > Giridih > Past weeks

Flag for India Past Weather in Giridih, Jharkhand, India — Yesterday and Last 2 Weeks

Now
95 °F

Partly cloudy.


Feels Like: 116 °F
Forecast: 80 / 95 °F
Wind: 5 mph from East

Location: Lucknow / Amausi

Current Time: Jun 29, 2016 at 9:56:36 PM

Latest Report: Jun 29, 2016 at 9:00 PM


Visibility: 2 mi

Pressure: 29.53 "Hg

Humidity: 63%

Dew Point: 81 °F

Location of GiridihLocation

Past Weather in Giridih — Graph

°F

Giridih Temperature Yesterday

Maximum temperature yesterday: 100 °F (at 2:30 PM)
Minimum temperature yesterday: 86 °F (at 5:00 AM)
Average temperature yesterday: 94 °F

High & Low Weather Summary for the Past Weeks

 TemperatureHumidityPressure
High104 °F (Jun 15, 1:00 PM)100% (Jun 15, 5:30 PM)29.68 "Hg (Jun 15, 5:30 PM)
Low75 °F (Jun 21, 7:30 AM)38% (Jun 15, 1:30 PM)29.39 "Hg (Jun 15, 3:00 AM)
Average91 °F72%29.54 "Hg
* Reported Jun 14 8:30 PM — Jun 29 8:30 PM, Giridih, Weather by CustomWeather, © 2016

Note: Actual official high and low records may vary slightly from our data, if they occured in-between our weather recording intervals... More about our weather records

Advertising

Giridih Weather History for the Previous 24 Hours

Scroll right to see more
 ConditionsComfort  
Time TempWeatherWind HumidityBarometerVisibility
8:30 PM
Wed, Jun 29
95 °FPartly cloudy.5 mph63%29.53 "Hg2 mi
8:00 PM95 °FPartly cloudy.6 mph63%29.50 "Hg2 mi
7:30 PM97 °FPartly sunny.9 mph60%29.50 "Hg2 mi
7:00 PM97 °FBroken clouds.6 mph60%29.47 "Hg2 mi
6:30 PM99 °FBroken clouds.7 mph57%29.47 "Hg3 mi
6:00 PM99 °FBroken clouds.6 mph57%29.47 "Hg3 mi
5:30 PM100 °FBroken clouds.7 mph50%29.47 "Hg3 mi
5:00 PM100 °FBroken clouds.6 mph50%29.47 "Hg3 mi
4:30 PM102 °FBroken clouds.3 mph48%29.50 "Hg3 mi
4:00 PM102 °FBroken clouds.6 mph48%29.50 "Hg3 mi
3:30 PM102 °FBroken clouds.8 mph45%29.50 "Hg3 mi
3:00 PM102 °FBroken clouds.6 mph48%29.53 "Hg3 mi
2:30 PM102 °FBroken clouds.9 mph48%29.53 "Hg3 mi
2:00 PM99 °FBroken clouds.12 mph57%29.53 "Hg3 mi
1:30 PM100 °FBroken clouds.10 mph53%29.56 "Hg3 mi
1:00 PM100 °FBroken clouds.9 mph53%29.56 "Hg3 mi
12:30 PM100 °FBroken clouds.10 mph53%29.56 "Hg3 mi
12:00 PM99 °FScattered clouds.9 mph57%29.56 "Hg3 mi
11:30 AM99 °FScattered clouds.5 mph57%29.59 "Hg3 mi
11:00 AM99 °FBroken clouds.5 mph57%29.59 "Hg2 mi
10:30 AM99 °FScattered clouds.9 mph53%29.59 "Hg2 mi
10:00 AM97 °FScattered clouds.9 mph60%29.59 "Hg2 mi
9:30 AM95 °FScattered clouds.9 mph63%29.62 "Hg2 mi
9:00 AM95 °FScattered clouds.9 mph63%29.62 "Hg2 mi
8:30 AM91 °FScattered clouds.9 mph75%29.62 "Hg2 mi
8:00 AM91 °FScattered clouds.12 mph75%29.62 "Hg2 mi
7:30 AM88 °FScattered clouds.8 mph79%29.59 "Hg2 mi
7:00 AM88 °FScattered clouds.8 mph79%29.59 "Hg2 mi
6:30 AM88 °FScattered clouds.8 mph79%29.59 "Hg2 mi
6:00 AM88 °FScattered clouds.8 mph79%29.59 "Hg2 mi
5:30 AM88 °FPassing clouds.7 mph79%29.56 "Hg2 mi
5:00 AM88 °FPassing clouds.7 mph79%29.56 "Hg2 mi
4:00 AM90 °FPassing clouds.7 mph75%29.56 "Hg2 mi
3:00 AM90 °FPassing clouds.7 mph75%29.56 "Hg2 mi
2:00 AM90 °FPassing clouds.7 mph75%29.56 "Hg2 mi
1:00 AM90 °FPassing clouds.7 mph75%29.56 "Hg2 mi
12:00 AM91 °FPassing clouds.6 mph75%29.56 "Hg2 mi
11:00 PM
Tue, Jun 28
91 °FPassing clouds.7 mph75%29.56 "Hg2 mi
10:00 PM93 °FPassing clouds.7 mph71%29.53 "Hg2 mi
9:00 PM93 °FPassing clouds.6 mph67%29.50 "Hg2 mi
Weather by CustomWeather, © 2016

See weather overviewHow to use our weather pages